[[{"header":{"parameterUnit":"m.s-1","parameterCategory":1,"la1":30.2991,"la2":30.254,"lo1":-89.0895,"lo2":-89.0444,"dy":0.0017,"dx":0.0017,"nx":28,"ny":28,"refTime":"2025-12-30T03:00:00:Z","depth":0,"parameterNumber":2,"parameterNumberName":"U-component_of_WINDS"},"data":[0,0,0,0,0,0,0,0,0,0,0,0,0,0,0,0,0,0,0,0,0,0,0,0,0,0,0,0,0,0,0,0,0,0,0,0,0,0,0,0,0,0,0,0,0,0,0,0,0,0,0,0,0,0,0,0,0,0,2.29,2.29,0,2.2921,2.2921,2.2921,2.2894,2.2893,2.2892,2.2892,2.2913,2.2914,2.2915,0,0,0,0,0,0,0,0,0,0,0,0,0,2.2837,2.2838,2.2899,2.29,2.29,2.2921,2.2921,2.2921,2.2895,2.2893,2.2892,2.2891,2.2912,2.2914,2.2916,0,0,0,0,0,0,0,0,0,0,0,0,0,2.2861,2.2838,2.2899,2.2889,2.2889,2.2921,2.2921,2.2921,2.2895,2.2893,2.2892,2.2891,2.2911,2.2914,2.2916,2.2959,0,0,2.2922,2.2923,0,0,0,0,0,0,0,0,2.286,2.2864,2.289,2.289,2.2889,2.2903,2.2906,2.2934,2.2895,2.2892,2.2892,2.289,2.2911,2.2913,2.292,2.2959,2.296,2.2923,2.2924,2.2925,2.2926,0,0,0,0,0,0,0,2.2858,2.2863,2.2908,2.2891,2.289,2.2884,2.2886,2.2911,2.2909,2.2893,2.2891,2.2894,2.291,2.2918,2.292,2.2961,2.2923,2.2925,2.2926,2.2927,2.3038,2.3039,0,0,0,0,0,0,2.2858,2.2861,2.2907,2.2908,2.2871,2.2886,2.2888,2.29,2.2909,2.2909,2.2895,2.2892,2.2915,2.2918,2.2921,2.2972,2.2925,2.2927,2.2928,2.3036,2.3038,2.304,0,0,0,0,0,0,2.2857,2.2862,2.2906,2.2885,2.289,2.2889,2.2903,2.2902,2.2909,2.2911,2.291,2.2903,2.2914,2.2918,2.295,2.2972,2.2928,2.293,2.3034,2.3037,2.3039,2.3074,0,0,0,0,0,0,2.2855,2.2862,2.2878,2.2885,2.2891,2.2935,2.2904,2.2903,2.2913,2.291,2.2918,2.2918,2.2913,2.2947,2.2952,2.2974,2.2932,2.3032,2.3035,2.3038,2.3071,2.3077,2.3083,0,0,0,0,0,2.2853,2.2887,2.2879,2.2884,2.2911,2.2936,2.2939,2.2932,2.2915,2.2931,2.2933,2.2918,2.2969,2.295,2.2956,2.2979,2.3031,2.3034,2.3038,2.3068,2.3076,2.3083,0,0,0,0,0,0,2.2881,2.2887,2.2879,2.2916,2.2926,2.2931,2.2951,2.2941,2.2956,2.2952,2.2943,2.2945,2.2979,2.2983,2.2961,2.3022,2.2997,2.3002,2.3018,2.3026,2.3032,2.303,2.2934,0,0,0,0,0,2.2892,2.2912,2.2916,2.2949,2.2954,2.2952,2.2963,2.2957,2.2967,2.297,2.2974,2.2984,2.3002,2.3014,2.3031,2.3072,2.3073,2.3091,2.3097,2.3102,2.3106,2.3129,2.3137,2.3052,2.3052,2.3052,0,0,2.2914,2.292,2.2933,2.2955,2.2961,2.2983,2.2956,2.2979,2.2994,2.2974,2.3004,2.3007,2.3018,2.3055,2.3071,2.3058,2.313,2.3107,2.3111,2.3112,2.3133,2.3141,2.3148,2.3054,2.3054,2.3053,0,0,2.2965,2.2972,2.3,2.3008,2.3019,2.3018,2.3024,2.3032,2.3034,2.3064,2.305,2.3068,2.31,2.3108,2.3116,2.3173,2.316,2.3179,2.321,2.3232,2.3239,2.3245,2.3265,2.3272,2.3183,2.3183,2.3183,0,2.2991,2.3022,2.3015,2.304,2.305,2.3034,2.3062,2.307,2.3086,2.3093,2.308,2.312,2.3126,2.3164,2.3178,2.3186,2.3193,2.3177,2.3238,2.3244,2.325,2.3269,2.3276,2.3185,2.3185,2.3185,2.3185,0,2.3054,2.3076,2.3097,2.3114,2.3126,2.3153,2.315,2.3164,2.3158,2.3158,2.319,2.3197,2.3215,2.3224,2.3218,2.3262,2.3254,2.324,2.3214,2.326,2.3278,2.3285,2.3188,2.3188,2.3187,2.3186,0,0,2.3122,2.3136,2.3144,2.3151,2.3163,2.318,2.3206,2.3225,2.3237,2.3249,2.3271,2.3299,2.3286,2.3296,2.329,2.331,2.3354,2.3293,2.3293,2.3304,2.3405,2.3415,2.3424,2.3347,2.3348,2.3349,2.3404,0,2.3173,2.3218,2.3214,2.3257,2.3277,2.3263,2.3286,2.3296,2.3297,2.3315,2.3317,2.3337,2.3318,2.3324,2.3343,2.3345,2.3374,2.3341,2.3367,2.3368,2.3364,2.3433,2.3444,2.3495,2.3411,2.3412,2.3413,0,2.3238,2.3253,2.3299,2.3309,2.3317,2.3338,2.3355,2.3372,2.3384,2.3384,2.3395,2.3387,2.3414,2.3389,2.3426,2.3404,2.3414,2.3417,2.3419,2.342,2.3392,2.3436,2.3511,2.3519,2.3424,2.3423,2.3422,0,2.3283,2.3315,2.3347,2.3354,2.3366,2.3381,2.3387,2.3397,2.3409,2.3424,2.3432,2.345,2.346,2.3474,2.3471,2.3453,2.3509,2.3484,2.351,2.351,2.3522,2.3521,2.3599,2.3529,2.3529,2.3529,2.3529,0,2.334,2.3369,2.3367,2.3386,2.3418,2.3413,2.3444,2.3448,2.3458,2.3478,2.3467,2.3486,2.3481,2.3501,2.3499,2.353,2.3534,2.3535,2.3534,2.3536,2.3536,2.3542,2.3538,2.3531,2.3531,2.353,2.353,0,2.3395,2.3396,2.3429,2.3438,2.3442,2.3464,2.3473,2.3491,2.3493,2.3518,2.3524,2.3526,2.3548,2.3547,2.3572,2.3571,2.3609,2.3605,2.3606,2.3604,2.363,2.3628,2.3715,2.3726,2.365,2.365,2.3651,0,2.3431,2.3453,2.3465,2.3478,2.3485,2.3506,2.3518,2.3515,2.3528,2.3544,2.356,2.3582,2.3598,2.3635,2.3639,2.3658,2.3653,2.3682,2.3656,2.3657,2.3653,2.3652,2.3654,2.3687,2.3688,2.3689,2.3689,0,2.3495,2.3495,2.3513,2.3532,2.3547,2.3562,2.3575,2.3586,2.3584,2.36,2.3623,2.3636,2.3662,2.3683,2.3702,2.3708,2.3699,2.3698,2.3705,2.3706,2.3706,2.3707,2.3619,2.3696,2.3695,2.3695,2.3694,2.3694,2.3542,2.3561,2.3573,2.3594,2.3604,2.3617,2.3635,2.3639,2.3658,2.3679,2.3676,2.3702,2.3714,2.3738,2.3747,2.3767,2.3757,2.3767,2.3769,2.3772,2.3774,2.3704,2.377,2.377,2.377,2.377,2.377,0,2.3605,2.3613,2.3632,2.3651,2.3668,2.3659,2.3673,2.3688,2.3711,2.3723,2.374,2.3767,2.3788,2.3795,2.3815,2.383,2.3826,2.3836,2.3834,2.3836,2.3783,2.3774,2.3839,2.3839,2.3839,2.3839,2.3839,2.3839,2.364,2.3672,2.3673,2.3709,2.3717,2.3742,2.3751,2.3763,2.3773,2.3804,2.3822,2.3826,2.3836,2.3858,2.3877,2.3878,2.3886,2.3897,2.3897,2.3847,2.384,2.3833,2.3825,2.3899,2.3899,2.3948,2.3949,2.3949]},{"header":{"parameterUnit":"m.s-1","parameterCategory":1,"la1":30.2991,"la2":30.254,"lo1":-89.0895,"lo2":-89.0444,"dy":0.0017,"dx":0.0017,"nx":28,"ny":28,"refTime":"2025-12-30T03:00:00:Z","depth":0,"parameterNumber":3,"parameterNumberName":"V-component_of_WINDS"},"data":[0,0,0,0,0,0,0,0,0,0,0,0,0,0,0,0,0,0,0,0,0,0,0,0,0,0,0,0,0,0,0,0,0,0,0,0,0,0,0,0,0,0,0,0,0,0,0,0,0,0,0,0,0,0,0,0,0,0,-7.3652,-7.3654,0,-7.3846,-7.3848,-7.385,-7.376,-7.3755,-7.375,-7.3745,-7.3941,-7.3951,-7.396,0,0,0,0,0,0,0,0,0,0,0,0,0,-7.3203,-7.3212,-7.3652,-7.3655,-7.3657,-7.3845,-7.3848,-7.3851,-7.3761,-7.3755,-7.3749,-7.3743,-7.3938,-7.3949,-7.3961,0,0,0,0,0,0,0,0,0,0,0,0,0,-7.3397,-7.3214,-7.3652,-7.3635,-7.3635,-7.3845,-7.3848,-7.3851,-7.3762,-7.3754,-7.3747,-7.374,-7.3934,-7.3948,-7.3963,-7.42,0,0,-7.4008,-7.4014,0,0,0,0,0,0,0,0,-7.3386,-7.3414,-7.3635,-7.3636,-7.3637,-7.3771,-7.3761,-7.3968,-7.3764,-7.3714,-7.3745,-7.3737,-7.389,-7.3908,-7.396,-7.4209,-7.4217,-7.4009,-7.4018,-7.4024,-7.4028,0,0,0,0,0,0,0,-7.3373,-7.3405,-7.3729,-7.3638,-7.364,-7.3617,-7.3637,-7.38,-7.3841,-7.3717,-7.3711,-7.3736,-7.389,-7.3947,-7.3964,-7.422,-7.4008,-7.4021,-7.403,-7.4036,-7.4674,-7.4681,0,0,0,0,0,0,-7.336,-7.3394,-7.3722,-7.3734,-7.3491,-7.3631,-7.3653,-7.3736,-7.3839,-7.3847,-7.3742,-7.3731,-7.3925,-7.3947,-7.3971,-7.4256,-7.4024,-7.4038,-7.4046,-7.4666,-7.4675,-7.4684,0,0,0,0,0,0,-7.3351,-7.339,-7.3715,-7.3563,-7.3603,-7.3647,-7.374,-7.3743,-7.38,-7.3857,-7.3863,-7.3793,-7.392,-7.395,-7.4144,-7.4262,-7.4044,-7.4058,-7.4656,-7.4669,-7.468,-7.4828,0,0,0,0,0,0,-7.3338,-7.3388,-7.3479,-7.3566,-7.3611,-7.3886,-7.3747,-7.3752,-7.3826,-7.3813,-7.3907,-7.3915,-7.3917,-7.4123,-7.4159,-7.4278,-7.4069,-7.4646,-7.4662,-7.4676,-7.4813,-7.4844,-7.4871,0,0,0,0,0,-7.3323,-7.3512,-7.3484,-7.3524,-7.3726,-7.3893,-7.3918,-7.3917,-7.3836,-7.3928,-7.3964,-7.3912,-7.4243,-7.4143,-7.4183,-7.4308,-7.4638,-7.4657,-7.4675,-7.48,-7.4838,-7.487,0,0,0,0,0,0,-7.3437,-7.3523,-7.3493,-7.3716,-7.3798,-7.3877,-7.3993,-7.3957,-7.4063,-7.4047,-7.404,-7.4062,-7.4263,-7.4305,-7.4192,-7.4544,-7.4428,-7.4455,-7.451,-7.4546,-7.4574,-7.456,-7.4081,0,0,0,0,0,-7.3488,-7.3617,-7.3685,-7.3875,-7.3918,-7.3949,-7.4021,-7.4013,-7.4098,-7.4132,-7.4182,-7.4265,-7.4388,-7.4469,-7.4585,-7.4818,-7.4837,-7.4924,-7.4953,-7.4976,-7.5,-7.5127,-7.5167,-7.4744,-7.4744,-7.4744,0,0,-7.3594,-7.3658,-7.3739,-7.39,-7.3962,-7.4096,-7.3978,-7.4124,-7.4223,-7.4153,-7.434,-7.438,-7.4472,-7.4687,-7.4784,-7.4728,-7.5121,-7.4999,-7.5018,-7.5029,-7.515,-7.519,-7.5226,-7.4757,-7.4755,-7.4753,0,0,-7.3858,-7.3918,-7.4084,-7.415,-7.4246,-7.4265,-7.4305,-7.4391,-7.4415,-7.4602,-7.4553,-7.467,-7.4881,-7.495,-7.5012,-7.5302,-7.5258,-7.534,-7.549,-7.5615,-7.5648,-7.5677,-7.5782,-7.582,-7.5363,-7.5363,-7.5364,0,-7.3978,-7.4178,-7.4173,-7.4324,-7.4396,-7.434,-7.4508,-7.4571,-7.4701,-7.4752,-7.4687,-7.4952,-7.5009,-7.524,-7.5311,-7.5363,-7.5409,-7.533,-7.5644,-7.5673,-7.5701,-7.58,-7.584,-7.5373,-7.5372,-7.5371,-7.537,0,-7.4322,-7.4462,-7.4584,-7.4712,-7.4797,-7.4956,-7.4975,-7.5062,-7.5047,-7.5073,-7.5265,-7.5332,-7.5462,-7.5515,-7.5501,-7.5745,-7.5707,-7.5643,-7.5527,-7.5751,-7.5844,-7.5882,-7.5386,-7.5383,-7.538,-7.5378,0,0,-7.4663,-7.4787,-7.4832,-7.489,-7.4992,-7.51,-7.5256,-7.5383,-7.5459,-7.5549,-7.568,-7.5861,-7.5803,-7.5874,-7.5867,-7.5976,-7.6203,-7.5899,-7.5901,-7.5954,-7.6476,-7.6525,-7.6569,-7.6174,-7.6181,-7.6187,-7.6469,0,-7.4935,-7.5209,-7.521,-7.5463,-7.5592,-7.554,-7.5676,-7.5754,-7.5782,-7.5895,-7.5926,-7.6055,-7.5968,-7.601,-7.6116,-7.6153,-7.6308,-7.6132,-7.6296,-7.6302,-7.6276,-7.6618,-7.667,-7.6933,-7.6506,-7.6512,-7.6516,0,-7.5289,-7.5393,-7.5659,-7.5744,-7.5798,-7.5921,-7.6038,-7.6147,-7.6233,-7.6246,-7.6327,-7.6303,-7.6461,-7.634,-7.6558,-7.6439,-7.6505,-7.6534,-7.6544,-7.656,-7.6424,-7.6645,-7.7017,-7.7057,-7.6574,-7.6569,-7.6565,0,-7.5513,-7.5719,-7.5905,-7.5956,-7.6059,-7.6147,-7.6194,-7.6273,-7.635,-7.6452,-7.6502,-7.6621,-7.6687,-7.6779,-7.6788,-7.6698,-7.7008,-7.6887,-7.7024,-7.7024,-7.7093,-7.7089,-7.7482,-7.7134,-7.7133,-7.7132,-7.7131,0,-7.5817,-7.5982,-7.6008,-7.6123,-7.6306,-7.6305,-7.6486,-7.6525,-7.6597,-7.6718,-7.668,-7.6794,-7.6799,-7.6916,-7.6924,-7.7104,-7.7133,-7.7148,-7.7149,-7.7153,-7.7152,-7.7198,-7.718,-7.7143,-7.714,-7.7138,-7.7136,0,-7.6099,-7.6122,-7.6322,-7.6404,-7.6428,-7.656,-7.663,-7.674,-7.6764,-7.6918,-7.6954,-7.6993,-7.7129,-7.7147,-7.7305,-7.731,-7.7528,-7.7508,-7.75,-7.7497,-7.7634,-7.7621,-7.8072,-7.8131,-7.7743,-7.7746,-7.7749,0,-7.6292,-7.6419,-7.6514,-7.6593,-7.6646,-7.6773,-7.6852,-7.6855,-7.6938,-7.7047,-7.7144,-7.7276,-7.7382,-7.7602,-7.7644,-7.7765,-7.7749,-7.7898,-7.7767,-7.7767,-7.7753,-7.7746,-7.7759,-7.7924,-7.7928,-7.7932,-7.7935,0,-7.6634,-7.6639,-7.6755,-7.6875,-7.6971,-7.7065,-7.7154,-7.7221,-7.7235,-7.7331,-7.747,-7.7553,-7.7715,-7.7847,-7.7967,-7.8014,-7.7978,-7.7976,-7.8014,-7.802,-7.8011,-7.8019,-7.7571,-7.7965,-7.7962,-7.796,-7.7958,-7.7957,-7.6879,-7.6989,-7.7074,-7.7204,-7.7271,-7.7356,-7.7463,-7.7502,-7.7618,-7.7752,-7.7746,-7.79,-7.7983,-7.8141,-7.8197,-7.8317,-7.8267,-7.8323,-7.8337,-7.8351,-7.8366,-7.7991,-7.8338,-7.8337,-7.8336,-7.8336,-7.8335,0,-7.7219,-7.7272,-7.7391,-7.7518,-7.762,-7.7577,-7.7673,-7.7762,-7.7898,-7.798,-7.8086,-7.8246,-7.8374,-7.8426,-7.8552,-7.8638,-7.8624,-7.8671,-7.8665,-7.8677,-7.8401,-7.8357,-7.868,-7.868,-7.868,-7.868,-7.8679,-7.8679,-7.7409,-7.7594,-7.761,-7.7828,-7.7878,-7.803,-7.8088,-7.8166,-7.8231,-7.8413,-7.852,-7.8553,-7.8623,-7.8753,-7.8869,-7.8881,-7.893,-7.8984,-7.8989,-7.8731,-7.8696,-7.8663,-7.8621,-7.8994,-7.8995,-7.9255,-7.9257,-7.9259]}]]